Sign in Sign up

Notice: Undefined variable: fis in /home/skisport365.com/public_html/sskating/resultat.php on line 34 Notice: Undefined variable: v in /home/skisport365.com/public_html/sskating/resultat.php on line 34

Hamar

Pos Pair Lane Name Born Nation Time
1 12 O Ireen Wüst 1986 Netherlands 1:55.49
2 12 I Miho Takagi 1994 Japan 1:55.81
3 11 O Martina Sábliková 1987 Czech Republic 1:56.15
4 9 I Olga Graf 1983 Russia 1:56.43
5 11 I Antoinette de Jong 1995 Netherlands 1:56.77
6 7 O Marije Joling 1987 Netherlands 1:57.14
7 8 I Natalia Czerwonka 1988 Poland 1:57.21
8 10 O Ida Njĺtun 1991 Norway 1:57.72
9 7 I Nana Takagi 1992 Japan 1:58.13
10 9 O Ayano Sato 1996 Japan 1:58.25
11 8 O Natalya Voronina 1994 Russia 1:58.39
12 10 I Ivanie Blondin 1990 Canada 1:59.10
13 5 O Anna Yurakova 1992 Russia 1:59.18
14 6 O Francesca Lollobrigida 1991 Italy 1:59.43
15 5 I Luiza Zlotkowska 1986 Poland 1:59.91
16 6 I Bente Kraus 1989 Germany 2:00.15
17 3 I Katarzyna Woźniak 1989 Poland 2:00.39
18 4 I Nikola Zdráhalová 1996 Czech Republic 2:00.71
19 3 O Jelena Peeters 1985 Belgium 2:01.19
20 2 I Sofie Karoline Haugen 1995 Norway 2:02.01
21 4 O Marina Zueva 1992 Belarus 2:02.18
22 1 I Saskia Alusalu 1994 Estonia 2:03.61
23 2 O Carlijn Schoutens 1994 USA 2:03.77
24 1 O Camilla Lund 1994 Norway 2:08.43

Info

What World Champ All-round
Discipline 1.500
Host Hamar
Nation Norway
Date Sunday 5.Mar 2017
Calendar 2016/2017
Air Temp 16.5 C
Ice Temp -11.1 C
Humidity 19.7 %